Regional Weather Roundup
Issued by NWS Columbia, SC

Home | Current Version | Previous Version | Text Only | Print | Product List | Glossary On
Versions: 1 2 3 4 5 6 7 8 9 10 11 12 13 14 15 16 17 18 19 20 21 22 23 24 25 26 27 28
000
ASUS42 KCAE 240110
RWRCAE
REGIONAL WEATHER ROUNDUP
NATIONAL WEATHER SERVICE COLUMBIA SC
900 PM EDT WED APR 23 2014

NOTE: "FAIR" INDICATES FEW OR NO CLOUDS BELOW 12,000 FEET WITH NO
SIGNIFICANT WEATHER AND/OR OBSTRUCTIONS TO VISIBILITY.

NOT ALL STATIONS ARE QUALITY CONTROLLED BY THE NATIONAL
WEATHER SERVICE. USE DATA WITH CAUTION...ESPECIALLY
DEWPOINT OBSERVATIONS.

SCZ001>056-GAZ040-063>065-077-240200-
...UPSTATE SOUTH CAROLINA...

CITY           SKY/WX    TMP DP  RH WIND       PRES   REMARKS
ANDERSON       CLEAR     65  46  50 SE6       29.89R
LIBERTY        FAIR      69  32  25 MISG      29.89R
SPARTANBURG    FAIR      68  30  24 NE5       29.90R
CLEMSON        CLEAR     73  38  27 SE3       29.89R
GREENVILLE     CLEAR     69  27  20 NE7       29.92R
GREENWOOD      CLEAR     64  46  52 CALM      29.90R
GREER          CLEAR     68  27  21 N7        29.90R
ROCK HILL      CLEAR     58  38  47 CALM      29.91R
CHESTER        FAIR      68  34  28 N5        29.91R
LAURENS        FAIR      64  36  34 NE5       29.91R


...CENTRAL SOUTH CAROLINA...

CITY           SKY/WX    TMP DP  RH WIND       PRES   REMARKS
COLUMBIA APT   CLEAR     65  47  52 CALM      29.88R
COLUMBIA OWENS CLEAR     65  45  48 CALM      29.89R
DARLINGTON     CLEAR     61  45  55 CALM      29.90R
FLORENCE       CLEAR     64  37  36 CALM      29.88R
MCENTIRE ANGB  CLEAR     61  45  54 N2        29.89R
ORANGEBURG     CLEAR     67  48  50 CALM      29.88R
SUMTER SHAW    CLEAR     65  43  46 CALM      29.87R
NEWBERRY       FAIR      61  39  44 CALM      29.92R
AIKEN          FAIR      64  52  63 CALM      29.93R
BARNWELL       FAIR      66  48  52 CALM      29.88R
MANNING        FAIR      63  50  63 CALM      29.88R
CAMDEN         FAIR      63  48  59 CALM      29.90R
LANCASTER      FAIR      55  45  67 CALM      29.90R
WINNSBORO      FAIR      64  39  39 NE5       29.89R


...EASTERN AND COASTAL SOUTH CAROLINA...

CITY           SKY/WX    TMP DP  RH WIND       PRES   REMARKS
N MYRTLE BCH   CLEAR     60  58  92 CALM      29.88R FOG
CONWAY         FAIR      61  50  67 CALM      29.88R
MARION         FAIR      61  43  51 CALM      29.89R
HARTSVILLE     FAIR      68  30  24 N6        29.90R
FLORENCE       CLEAR     64  37  36 CALM      29.88R
DARLINGTON     CLEAR     61  45  55 CALM      29.90R
CHARLESTON APT CLEAR     73  51  46 CALM      29.87R
MOUNT PLEASANT FAIR      66  64  94 CALM      29.86R FOG
WALTERBORO     CLEAR     64  55  72 CALM      29.88R
BEAUFORT       CLEAR     68  54  60 CALM      29.87R


...EASTERN GEORGIA...

CITY           SKY/WX    TMP DP  RH WIND       PRES   REMARKS
AUGUSTA BUSH F LGT RAIN  62  51  67 CALM      29.87R
AUGUSTA DANIEL CLEAR     75  38  26 N5        29.89R
THOMSON        CLEAR     62  56  81 SW3       29.94R
WASHINGTON     FAIR      64  54  68 CALM      29.89R
CLAXTON        FAIR      64  63  94 CALM      29.88R
SYLVANIA       CLEAR     67  53  59 CALM      29.88R
STATESBORO     CLEAR     64  53  69 CALM      29.88R
SAVANNAH       CLEAR     71  56  58 SW5       29.87R


...SOUTHERN NORTH CAROLINA...

CITY           SKY/WX    TMP DP  RH WIND       PRES   REMARKS
CHARLOTTE      CLEAR     62  27  26 N6        29.92R
MONROE         CLEAR     59  38  45 CALM      29.90R
WADESBORO      CLEAR     56  45  64 CALM      29.90R
ROCKINGHAM       N/A     62  36  37 CALM      29.90R
RUTHERFORDTON  CLEAR     65  23  20 N5        29.94R
ASHEVILLE      CLEAR     57  26  30 N7        29.99R

$$



USA.gov is the U.S. government's official web portal to all federal, state and local government web resources and services.